This is the latest recevied weather packets stored in our database for station/object N9CQL. If no packets are shown the sender has not sent any weather packets the latest 10 day(s).
| Time | Temp. | Humidity | Pressure | Rain* | Wind** | Luminosity | Snow |
|---|---|---|---|---|---|---|---|
| 1777631933 | 4.44° C | 94% | 1014.3 hPa | 0 mm | - | 0 W/m² | - |
| 1777631631 | 4.44° C | 94% | 1014.4 hPa | 0 mm | - | 0 W/m² | - |
| 1777631328 | 4.44° C | 94% | 1014.4 hPa | 0 mm | - | 0 W/m² | - |
| 1777631024 | 4.44° C | 94% | 1014.1 hPa | 0 mm | - | 0 W/m² | - |
| 1777630721 | 4.44° C | 94% | 1014.1 hPa | 1.27 mm | - | 0 W/m² | - |
| 1777630418 | 4.44° C | 94% | 1014.1 hPa | 3.05 mm | - | 0 W/m² | - |
| 1777630116 | 4.44° C | 94% | 1014 hPa | 3.05 mm | - | 0 W/m² | - |
| 1777629813 | 4.44° C | 94% | 1014.3 hPa | 3.05 mm | - | 0 W/m² | - |
| 1777629509 | 4.44° C | 94% | 1014.2 hPa | 1.78 mm | - | 0 W/m² | - |
| 1777629206 | 4.44° C | 94% | 1014 hPa | 1.27 mm | - | 0 W/m² | - |
| 1777628902 | 5° C | 94% | 1014.2 hPa | 1.27 mm | - | 0 W/m² | - |
| 1777628599 | 5° C | 94% | 1013.9 hPa | 1.78 mm | - | 0 W/m² | - |
| 1777628295 | 5° C | 94% | 1013.7 hPa | 1.78 mm | - | 0 W/m² | - |
| 1777627992 | 5° C | 94% | 1013.7 hPa | 0 mm | - | 0 W/m² | - |
| 1777627690 | 5° C | 94% | 1013.7 hPa | 0 mm | - | 0 W/m² | - |
| 1777627389 | 5° C | 94% | 1013.6 hPa | 0 mm | - | 0 W/m² | - |
| 1777627087 | 5° C | 95% | 1013.7 hPa | 0 mm | - | 0 W/m² | - |
| 1777626783 | 5° C | 94% | 1013.6 hPa | 0 mm | - | 0 W/m² | - |
| 1777626479 | 5° C | 94% | 1013.4 hPa | 0 mm | - | 0 W/m² | - |
| 1777626174 | 5° C | 95% | 1013.2 hPa | 0 mm | - | 0 W/m² | - |
| 1777625872 | 5° C | 95% | 1013.3 hPa | 0 mm | - | 0 W/m² | - |
| 1777625568 | 5° C | 95% | 1013.2 hPa | 0 mm | - | 0 W/m² | - |
| 1777625264 | 5° C | 95% | 1013.1 hPa | 0 mm | - | 0 W/m² | - |
| 1777624960 | 5° C | 95% | 1013.2 hPa | 0 mm | - | 0 W/m² | - |
| 1777624657 | 5° C | 95% | 1013.3 hPa | 0 mm | - | 0 W/m² | - |
* Rain latest hour (hover to see other rain measurements)
** Current wind speed in m/s (hover to see current wind gust speed)